Погода в Щучьем

Россия / Курганская область     55°12′31″N   62°44′52″E
темп.,
°C
ветер,
м/с
пор.,
м/с
влажн.,
%
обл.,
%
осадки,
мм/ч
давл.,
гПа
погр.,
м
21 июня, пн
пн2123:00+14ссз9163238 0.0 10141060
02:00+12ссз8154138 0.0 1015736
05:00+10ссз815529 0.0 1017780
08:00+12ссз913582 0.0 1019823
11:00+16с8115438 0.0 10201474
14:00+17с685291 0.0 10211836
17:00+19с474591 0.0 10212021
20:00+17сз356296 0.0 1020153
22 июня, вт
вт2223:00+14зюз2260100 0.0 102112
02:00+14юз2356100 0.0 102049
05:00+14ююз366199 0.0 1020159
08:00+17зюз466091 0.0 1019401
11:00+18зсз356496 0.0 1019408
14:00+20з566661 0.1 1018758
17:00+24сз566064 0.1 10161196
20:00+22ссз227699 0.1 101566
23 июня, ср
ср2323:00+18с229095 1.3 101421
02:00+16с349372 1.2 101558
05:00+14св61192100 1.4 1017474
08:00+13с4992100 0.1 1019531
11:00+18ссв465595 0.1 10201422
14:00+20ссв5641100 0.0 10192078
17:00+20ссв45415 0.0 10192117
20:00+17ссв35600 0.0 1019135
24 июня, чт
чт2423:00+12ссв22650 0.0 102010
02:00+10ссв11720 0.0 102110
05:00+10ссз22725 0.0 102118
08:00+16сз22565 0.0 1020320
11:00+20зсз344488 0.0 10191741
14:00+22сз56395 0.0 10181892
17:00+23сз46422 0.0 10171889
20:00+20юз355944 0.0 1016100
25 июня, пт
пт2523:00+19зюз613485 0.0 1014348
02:00+15з410675 0.0 1014168
05:00+15з496811 0.0 1013154
08:00+20з5959100 0.0 1011363
11:00+24зсз7960100 0.1 1010962
14:00+27сз796290 0.6 10081440
17:00+28сз795242 2.0 10071651
20:00+24с237551 1.1 100861